Helicity
132 100 133 178 111 104 76 111 106 81 77 68 51 45 18 12 52 27 -13 -3 -25 3 -1 -5 32 38 26 67 114 95 91 93 100 167 255 329 364 407 443 486 591 698 694 627
122 147 159 119 71 77 92 112 170 184 187 77 74 63 69 105 74 44 73 106 105 105 101 51 133 113 65 60 32 98 90 56 83 108 228 353 420 438 445 509 600 684 682 673
75 31 81 111 113 94 77 78 71 104 72 47 83 92 60 53 25 102 149 170 189 152 74 25 99 191 192 109 110 72 106 130 162 201 215 331 412 440 489 525 582 605 658 661
108 78 119 94 41 68 100 115 100 80 64 48 49 43 59 35 50 101 133 177 209 201 167 128 90 82 104 117 100 150 101 54 112 264 318 386 394 476 548 584 581 615 637 635
176 141 142 107 80 79 108 116 22 40 54 89 151 148 126 93 79 77 46 105 163 175 175 78 94 28 48 92 158 133 66 27 48 319 458 469 449 491 570 621 614 620 667 730
121 143 157 74 71 58 36 73 38 71 90 77 59 86 58 39 -10 44 57 99 82 72 78 31 58 49 83 105 71 62 65 56 58 281 409 470 509 517 523 550 580 670 681 611
57 70 34 47 33 60 51 55 114 63 64 65 81 77 82 68 57 45 53 83 86 73 67 44 45 86 161 138 72 42 41 63 91 240 358 421 482 556 598 608 627 585 600 537
50 69 95 179 139 109 78 42 30 36 29 30 35 45 60 80 88 67 63 73 89 70 84 35 74 149 158 117 81 30 23 73 148 242 337 419 495 580 647 693 671 566 550 498
92 112 85 48 57 62 75 61 64 83 63 65 78 77 88 91 70 63 64 66 71 91 81 65 132 103 84 104 56 48 62 77 128 224 296 434 580 789 785 638 561 523 486 432
89 65 73 60 52 51 61 50 57 67 80 74 77 46 67 105 69 63 72 88 60 56 83 127 158 161 108 58 24 50 96 102 121 197 292 426 445 411 423 395 427 455 391 277
-13 14 -30 30 17 -8 -17 -31 -45 -11 47 -4 -54 -64 38 124 62 59 86 86 33 28 101 164 138 94 9 5 58 105 99 88 138 181 255 335 293 274 303 287 274 247 187 210
63 48 -11 -13 -88 73 -30 -30 73 39 18 55 84 58 15 45 63 89 -41 -61 -9 67 140 91 75 46 24 56 95 85 105 136 171 220 264 270 248 242 230 205 171 175 193 191
-15 -68 -96 -76 -84 37 94 108 12 14 32 49 54 52 5 -49 -49 71 -6 14 38 135 96 78 86 85 60 98 119 102 116 138 172 193 185 165 165 152 136 111 119 108 107 99
-11 38 -45 35 -33 15 -38 -100 -10 108 -31 -101 -25 38 16 30 -56 -14 47 34 126 162 101 88 109 87 110 128 146 92 111 151 172 164 141 132 130 127 114 97 75 41 39 53
53 43 33 -13 -87 -55 15 47 21 -14 4 9 39 -75 33 3 -69 -37 99 131 145 101 98 98 109 107 120 119 134 132 123 155 171 163 117 120 123 126 140 167 176 181 160 138
47 19 26 -53 -49 14 20 45 67 51 29 53 44 9 55 22 14 37 113 131 146 90 62 91 115 121 143 133 168 175 157 165 169 149 108 100 100 118 129 150 155 150 149 152
3 -39 -13 12 6 30 17 31 54 84 77 46 37 31 73 33 53 83 90 104 74 53 47 115 148 150 187 194 177 162 197 199 147 129 100 85 89 104 105 118 118 107 102 124
77 69 -7 14 17 27 43 70 82 52 50 42 31 54 48 17 49 56 67 69 83 72 114 147 148 164 184 200 185 169 179 160 127 118 118 96 98 97 88 75 71 77 85 78
67 32 -9 8 20 51 25 65 62 62 63 58 15 39 92 63 52 44 51 82 110 131 125 140 153 177 207 190 177 158 145 159 145 133 103 105 106 98 99 87 72 77 64 56
39 49 -30 -12 12 27 18 6 7 45 31 40 20 -19 28 50 53 66 76 91 89 95 127 145 177 195 181 163 141 126 118 108 111 107 106 105 98 96 95 96 116 101 94 85
-46 -52 -47 -27 -11 27 32 22 1 -12 7 14 16 27 36 27 47 66 120 149 119 137 131 137 125 107 93 94 92 87 96 117 104 103 105 107 103 97 98 94 108 90 80 81
-106 -54 -67 -59 -28 0 22 11 1 -9 10 29 43 62 65 62 84 113 118 109 74 83 85 81 77 70 48 41 47 80 112 118 111 101 114 115 111 107 99 93 89 99 103 104
-56 -63 -64 -91 -68 -18 2 13 21 21 18 19 28 49 46 41 59 91 57 36 67 54 60 47 32 27 35 55 74 100 119 119 105 97 115 122 112 102 89 86 97 113 136 154
-1 3 27 35 5 13 -6 14 38 31 35 26 24 25 40 45 29 18 46 76 67 57 37 39 38 57 86 82 89 121 129 130 116 111 122 109 101 108 107 109 121 141 181 215
3 13 -2 -4 3 9 20 10 26 42 45 44 34 16 12 -1 15 67 88 90 76 70 72 78 106 132 136 132 137 139 144 143 144 132 122 128 141 147 147 151 180 197 217 221
34 10 6 10 3 5 14 8 20 34 37 45 47 32 25 10 59 110 120 114 133 132 123 132 155 161 166 172 175 171 165 169 167 151 166 178 189 206 209 216 232 243 270 268
38 26 13 16 22 26 17 12 13 38 59 46 57 61 48 48 100 115 130 142 174 164 169 180 178 177 183 188 187 187 189 185 184 183 193 208 225 243 236 260 270 266 268 257
Wind_Speed
74 76 78 82 91 94 86 81 87 86 79 81 74 73 69 74 75 78 75 71 71 69 73 79 78 61 72 71 51 37 48 53 53 38 36 38 36 33 32 30 32 28 26 27
76 81 72 79 85 88 89 86 87 85 96 80 80 82 82 79 75 67 66 64 65 69 72 72 70 68 60 50 50 44 43 50 49 38 26 29 29 31 30 30 25 24 25 25
75 62 68 81 71 65 73 70 73 84 79 76 82 83 83 82 64 60 63 66 73 77 77 73 73 72 69 63 52 46 49 45 53 46 36 27 24 24 25 23 22 23 25 26
82 82 96 74 67 72 84 85 82 76 83 84 86 87 80 66 59 63 67 70 73 77 77 77 76 75 72 70 54 56 60 61 53 42 36 29 28 28 27 27 27 27 27 25
76 84 85 90 79 76 79 85 75 84 81 79 78 73 65 48 57 65 64 68 72 76 80 78 76 68 64 72 65 62 62 69 63 40 35 32 30 27 26 25 26 27 27 27
66 71 73 63 63 73 80 93 77 65 76 81 81 83 77 75 70 71 69 71 71 72 69 68 70 68 64 65 63 62 64 64 63 35 34 36 30 28 26 25 27 26 26 25
73 79 76 66 70 73 78 77 81 86 86 80 79 77 81 84 84 75 75 78 78 79 80 74 77 65 57 55 57 64 66 65 59 42 33 33 29 28 26 27 27 27 25 23
63 72 80 59 73 65 78 91 85 88 77 84 90 91 87 82 85 89 87 82 85 91 79 66 56 44 46 57 62 66 66 63 58 48 40 36 33 32 30 26 24 23 22 22
66 72 76 90 88 90 86 98 96 86 97 95 91 86 80 81 86 90 89 89 85 72 69 55 49 49 58 60 55 58 56 52 50 44 40 36 32 28 25 22 22 24 25 25
84 83 87 93 94 93 89 83 95 86 77 75 72 81 74 63 70 77 76 69 73 76 68 58 47 48 49 51 51 51 44 41 38 35 30 24 21 19 17 14 12 14 16 14
55 53 49 48 45 46 53 61 64 55 65 65 93 88 86 60 83 55 51 70 73 76 54 41 34 42 45 46 45 38 32 31 29 27 23 15 13 10 9 6 8 17 19 18
45 45 52 51 51 56 61 59 83 95 97 89 84 89 92 41 29 24 66 61 58 52 16 28 32 37 37 37 35 26 24 23 21 19 15 12 6 3 3 8 12 11 14 13
58 58 63 77 89 90 82 91 105 102 88 94 77 88 93 41 81 57 72 60 47 2 25 28 32 34 31 28 27 17 17 15 16 15 11 7 10 16 18 13 11 15 18 16
27 71 82 78 89 94 86 71 91 81 50 53 42 84 83 42 78 69 54 64 27 22 25 29 31 29 21 23 21 11 11 12 13 12 12 14 12 11 14 16 15 15 16 17
45 56 49 34 59 40 39 55 64 95 91 84 56 38 75 77 53 65 35 42 22 22 23 27 23 20 17 15 15 12 12 11 12 15 16 19 18 18 17 18 18 17 15 15
69 71 73 76 64 27 32 30 29 35 35 43 54 46 69 65 41 30 33 29 28 26 27 27 21 13 11 11 11 10 7 10 14 9 8 16 17 18 18 17 14 14 14 14
81 64 60 52 52 53 47 37 30 30 22 20 46 51 58 29 27 21 19 26 35 31 22 23 22 11 8 8 6 6 3 9 10 9 6 12 15 15 13 14 13 13 14 13
44 31 37 38 48 51 41 26 23 20 20 11 19 47 52 4 14 17 21 24 27 29 24 21 15 8 6 4 5 5 6 7 5 5 4 8 13 15 15 14 13 13 13 13
45 23 64 59 57 47 37 15 17 15 20 28 18 38 34 17 12 19 28 27 25 23 18 15 10 5 3 3 7 6 10 11 7 3 3 8 9 10 11 11 13 13 13 13
37 39 70 69 69 72 67 67 49 40 37 23 21 16 26 25 23 21 19 17 16 18 11 9 7 5 4 7 11 9 7 10 9 2 5 7 9 10 12 13 13 13 14 13
23 34 66 70 71 74 74 72 71 22 5 6 10 15 19 21 19 17 15 16 18 14 12 13 13 14 11 13 13 9 9 11 11 10 11 12 13 13 11 11 12 13 12 12
50 30 46 51 68 67 70 71 68 64 60 53 34 25 20 18 19 20 19 16 17 18 19 16 14 17 18 18 15 15 13 11 12 14 14 14 14 12 11 12 11 11 12 11
79 72 67 55 60 42 26 71 69 67 64 45 35 30 24 21 21 20 18 17 21 25 24 26 28 27 26 20 18 17 14 15 16 17 15 14 11 11 11 10 10 10 11 13
82 81 76 71 79 74 69 70 65 63 59 51 36 28 26 24 21 19 18 21 23 26 25 27 29 30 22 19 18 15 15 14 14 13 12 12 10 9 9 9 8 9 12 15
82 79 76 80 78 76 72 71 70 66 62 46 44 31 21 20 16 16 15 15 19 19 19 22 23 22 17 15 12 11 10 9 8 8 8 8 6 6 6 5 7 9 12 15
81 77 79 76 76 76 73 71 67 67 64 60 35 28 25 28 19 11 10 8 9 8 9 12 14 13 12 9 8 7 5 3 3 3 3 3 4 5 6 7 9 11 13 15
81 77 80 77 74 74 72 70 68 68 65 63 60 44 19 19 14 13 11 6 3 5 6 8 8 8 9 8 7 5 4 4 3 2 1 3 4 6 7 8 10 12 15 18
Wind_Direction
294 293 293 293 291 289 288 290 289 293 295 298 301 305 309 310 310 307 304 300 300 297 301 303 300 298 299 290 300 304 300 296 298 299 283 276 273 273 269 265 263 257 259 266
299 296 293 295 296 293 291 292 292 294 292 300 303 305 306 310 313 311 308 309 307 306 307 311 313 308 312 308 309 304 298 295 301 300 296 283 276 272 272 270 261 255 257 256
296 301 302 294 299 302 300 299 299 296 302 305 302 303 305 308 316 315 311 309 308 307 305 308 307 312 313 313 316 310 306 298 290 293 292 282 275 271 269 259 253 253 258 259
294 297 288 296 299 299 297 297 301 305 305 305 304 303 306 311 312 312 310 310 309 307 307 307 309 302 306 315 314 314 311 311 299 286 283 273 272 271 268 264 258 258 257 259
293 291 295 295 297 299 299 298 303 304 306 308 311 310 309 319 323 316 317 314 311 310 308 307 305 306 305 304 308 309 312 313 307 285 274 271 268 270 270 262 261 263 260 258
296 297 297 305 309 307 305 296 305 308 307 306 306 302 301 306 311 314 312 312 314 313 312 313 310 304 305 303 307 309 313 313 315 290 273 268 264 260 262 261 259 257 256 254
300 297 300 307 310 308 299 305 307 303 303 303 303 303 305 304 304 306 306 303 303 306 305 301 301 306 301 302 307 308 310 310 310 301 279 270 265 262 254 260 263 260 259 260
307 303 300 317 312 309 305 302 307 304 306 305 303 302 303 303 302 300 300 300 297 294 300 311 310 306 305 304 307 308 308 305 306 303 294 284 271 269 258 255 249 252 256 263
304 301 304 304 303 303 304 301 301 304 302 303 302 303 304 303 303 301 296 294 295 296 302 307 308 307 301 309 313 316 312 307 307 307 302 293 275 264 255 250 249 256 255 261
305 304 304 302 300 299 301 297 300 304 308 307 306 304 310 314 315 310 306 299 296 288 292 301 304 308 314 312 314 315 316 316 316 318 316 316 282 255 245 236 244 250 253 246
256 258 261 257 259 261 262 263 264 287 311 291 274 273 298 313 315 312 314 305 292 280 284 297 309 317 319 318 318 317 320 323 325 322 324 360 296 266 257 257 143 131 129 137
251 263 266 266 272 329 289 283 309 300 296 295 300 299 296 307 295 263 265 266 281 278 300 298 318 325 329 329 326 321 328 334 345 352 344 28 6 295 300 85 94 97 111 120
266 271 272 280 286 313 317 310 300 302 306 300 304 296 291 302 274 242 266 281 227 151 312 318 326 327 333 345 339 333 335 352 22 25 8 30 74 90 91 72 79 90 100 104
342 333 315 328 299 304 292 275 292 313 286 261 283 291 282 307 259 252 232 273 310 321 324 321 328 331 351 354 17 23 11 33 46 39 55 71 78 81 85 90 89 84 92 97
352 345 337 319 282 288 330 333 323 298 302 302 308 243 282 275 233 252 303 282 310 328 334 332 343 349 348 21 22 47 59 55 71 79 84 86 86 84 84 84 83 79 69 58
348 346 339 302 289 316 314 315 314 283 271 324 316 302 278 282 298 306 294 293 304 316 321 323 333 3 10 8 14 25 33 85 94 88 102 93 91 91 88 84 76 72 72 76
335 305 299 292 293 294 291 292 295 293 303 325 318 300 277 303 301 307 310 307 303 314 323 323 323 359 17 28 28 352 55 109 105 104 113 96 95 90 86 84 78 76 84 79
17 13 296 290 297 294 293 304 317 325 6 20 0 278 260 3 322 315 315 316 318 318 318 320 327 355 11 26 79 89 115 131 145 133 108 89 90 92 88 79 70 67 66 67
18 339 313 306 306 297 291 325 333 357 43 63 30 273 290 340 17 336 315 315 316 317 320 329 339 14 47 96 112 124 124 127 131 137 93 83 80 77 75 68 71 69 73 80
20 18 319 318 318 326 317 316 300 27 39 73 111 105 335 330 343 350 347 350 345 336 3 9 31 50 104 132 119 131 165 119 117 116 93 85 84 79 78 79 68 65 72 78
314 308 316 319 320 327 332 332 329 280 288 221 117 127 127 128 100 73 42 15 358 29 49 69 82 95 104 111 121 129 120 109 105 105 102 98 95 89 81 74 70 70 69 62
301 304 307 309 318 316 323 328 328 324 321 348 16 28 30 27 24 7 8 44 45 71 82 81 90 103 107 110 112 116 114 108 104 106 105 103 103 90 84 82 77 61 58 53
324 315 314 304 310 303 312 331 332 343 353 22 29 38 49 62 68 57 52 54 83 98 97 105 113 116 116 111 114 116 114 114 113 116 109 106 99 96 98 90 76 57 46 35
330 330 336 346 336 332 319 326 322 324 346 2 25 45 60 55 43 26 23 89 104 114 114 119 126 128 119 117 118 117 118 117 116 114 108 109 99 93 98 88 68 48 27 20
327 330 334 327 328 329 332 334 334 332 329 356 356 9 30 20 39 53 54 82 115 119 119 127 131 131 128 126 124 124 124 121 113 111 111 103 85 79 72 55 34 21 14 11
325 326 327 329 328 326 325 329 331 330 328 324 356 3 349 335 344 7 24 62 114 129 132 139 144 146 150 151 148 146 148 142 128 120 103 56 58 43 26 18 13 9 10 8
321 322 322 323 326 325 326 327 327 325 323 321 316 326 349 340 330 324 323 327 277 241 214 202 201 201 193 189 192 201 228 256 251 262 295 346 357 356 359 2 360 359 359 357